Location: Unspecified
(38.9820°N, 0.0000°E)
Time: 21:44:52
(UTC+00:00)

Tiangong 2 - Pass Details

Date: 27 May 2019
Orbit: 376 x 389 km, 42.8° (Epoch: 17 June)

Event Time Altitude Azimuth Distance (km) Brightness Sun altitude
Rises 20:21:21 0° 288° (WNW) 2,240 6.4 -11.4°
Reaches altitude 10° 20:23:29 10° 294° (WNW) 1,386 5.2 -11.7°
Maximum altitude 20:26:30 45° 9° (N) 521 1.9 -12.1°
Enters shadow 20:29:04 13° 82° (E) 1,210 3.2 -12.5°
